Boulder City, NV

10:52 AM PDT on April 27, 2017 (GMT -0700)
Boulder City

Weather History for KBVU - February, 2013

Change the Weather History Date:

Tuesday, February 26, 2013

  Actual Average (KLAS) Record (KLAS)
Temperature  
Mean Temperature 44 °F -  
Max Temperature 57 °F 65 °F 87 °F (1986)
Min Temperature 32 °F 42 °F 28 °F (1971)
Degree Days  
Heating Degree Days 20    
Moisture  
Dew Point 10 °F    
Average Humidity 24    
Maximum Humidity 48    
Minimum Humidity 10    
Precipitation  
Precipitation 0.00 in - - ()
Sea Level Pressure  
Sea Level Pressure 30.14 in    
Wind  
Wind Speed 8 mph (NNE)    
Max Wind Speed 25 mph    
Max Gust Speed 32 mph    
Visibility 10 miles    
Events Thunderstorm    
Averages and records for this station are not official NWS values.
T = Trace of Precipitation, MM = Missing Value Source: NWS Daily Summary

Daily Weather History Graph

Daily Weather History Graph

Search for Another Location

Airport or City:

Trip Planner

Search our weather history database for the weather conditions in past years. The results will help you decide how hot, cold, wet, or windy it might be!

Date:

Astronomy

Feb. 26, 2013 Rise Set
Actual Time 6:13 AM PST 5:31 PM PST
Civil Twilight 5:47 AM PST 5:57 PM PST
Nautical Twilight 5:17 AM PST 6:27 PM PST
Astronomical Twilight 4:47 AM PST 6:57 PM PST
Moon 6:48 PM PST (2/26) 6:21 AM PST (2/26)
Length of Visible Light 12h 10m
Length of Day
11h 18m
Full, 99% of the Moon is Illuminated
Feb 26
Full
Mar 4
Last Quarter
Mar 11
New
Mar 19
First Quarter
Mar 27
Full

Hourly Weather History & Observations

Time (PST) Temp. Windchill Dew Point Humidity Pressure Visibility Wind Dir Wind Speed Gust Speed Precip Events Conditions
12:15 AM 41.0 °F 38.0 °F 10.4 °F 29% 30.06 in 10.0 mi North 4.6 mph - N/A   Clear
12:35 AM 42.8 °F 40.1 °F 10.4 °F 27% 30.07 in 10.0 mi NNW 4.6 mph - N/A   Clear
12:55 AM 41.0 °F 39.0 °F 10.4 °F 29% 30.07 in 10.0 mi East 3.5 mph - N/A   Clear
1:15 AM 41.0 °F - 14.0 °F 33% 30.07 in 10.0 mi Calm Calm - N/A   Clear
1:35 AM 41.0 °F - 12.2 °F 31% 30.06 in 10.0 mi Calm Calm - N/A   Clear
1:55 AM 37.4 °F - 14.0 °F 38% 30.05 in 10.0 mi Calm Calm - N/A   Clear
2:15 AM 35.6 °F - 14.0 °F 41% 30.05 in 10.0 mi Calm Calm - N/A   Clear
2:35 AM 37.4 °F - 12.2 °F 36% 30.05 in 10.0 mi Calm Calm - N/A   Clear
2:55 AM 32.0 °F - 14.0 °F 48% 30.05 in 10.0 mi Calm Calm - N/A   Clear
3:15 AM 35.6 °F - 14.0 °F 41% 30.05 in 10.0 mi Calm Calm - N/A   Clear
3:35 AM 35.6 °F - 14.0 °F 41% 30.05 in 10.0 mi Calm Calm - N/A   Clear
3:55 AM 32.0 °F 28.7 °F 14.0 °F 48% 30.05 in 10.0 mi ENE 3.5 mph - N/A   Clear
4:15 AM 37.4 °F - 10.4 °F 33% 30.06 in 10.0 mi Calm Calm - N/A   Clear
4:35 AM 37.4 °F 34.9 °F 10.4 °F 33% 30.06 in 10.0 mi North 3.5 mph - N/A   Clear
4:55 AM 39.2 °F 37.0 °F 8.6 °F 28% 30.06 in 10.0 mi North 3.5 mph - N/A   Clear
5:15 AM 41.0 °F - 8.6 °F 26% 30.07 in 10.0 mi Calm Calm - N/A Thunderstorm Clear
5:35 AM 37.4 °F - 10.4 °F 33% 30.08 in 10.0 mi Calm Calm - N/A   Clear
5:55 AM 41.0 °F 35.8 °F 12.2 °F 31% 30.08 in 10.0 mi NNE 8.1 mph - N/A   Clear
6:15 AM 42.8 °F 41.1 °F 12.2 °F 29% 30.09 in 10.0 mi East 3.5 mph - N/A   Clear
6:35 AM 35.6 °F - 8.6 °F 33% 30.10 in 10.0 mi Calm Calm - N/A   Clear
6:55 AM 37.4 °F 32.8 °F 10.4 °F 33% 30.11 in 10.0 mi North 5.8 mph - N/A   Clear
7:15 AM 46.4 °F 42.9 °F 12.2 °F 25% 30.12 in 10.0 mi NE 6.9 mph - N/A   Clear
7:35 AM 48.2 °F - 12.2 °F 24% 30.14 in 10.0 mi NE 8.1 mph - N/A Thunderstorm Clear
7:55 AM 48.2 °F - 12.2 °F 24% 30.15 in 10.0 mi NE 9.2 mph - N/A   Clear
8:15 AM 48.2 °F - 10.4 °F 22% 30.16 in 10.0 mi NE 10.4 mph - N/A   Clear
8:35 AM 50.0 °F - 8.6 °F 19% 30.17 in 10.0 mi NNE 12.7 mph 17.3 mph N/A   Clear
8:55 AM 50.0 °F - 6.8 °F 17% 30.17 in 10.0 mi North 17.3 mph 25.3 mph N/A   Clear
9:15 AM 51.8 °F - 8.6 °F 18% 30.17 in 10.0 mi NNE 17.3 mph 24.2 mph N/A   Clear
9:35 AM 51.8 °F - 6.8 °F 16% 30.17 in 10.0 mi NNE 23.0 mph 31.1 mph N/A Thunderstorm Clear
9:55 AM 53.6 °F - 5.0 °F 14% 30.17 in 10.0 mi NNE 25.3 mph 31.1 mph N/A   Clear
10:15 AM 53.6 °F - 5.0 °F 14% 30.18 in 10.0 mi NNE 21.9 mph 31.1 mph N/A   Clear
10:35 AM 53.6 °F - 5.0 °F 14% 30.17 in 10.0 mi NNE 20.7 mph 28.8 mph N/A   Clear
10:55 AM 55.4 °F - 5.0 °F 13% 30.17 in 10.0 mi NNE 23.0 mph 32.2 mph N/A   Clear
11:15 AM 55.4 °F - 6.8 °F 14% 30.17 in 10.0 mi NNE 18.4 mph 21.9 mph N/A   Clear
11:35 AM 55.4 °F - 5.0 °F 13% 30.17 in 10.0 mi North 19.6 mph 24.2 mph N/A   Clear
11:55 AM 55.4 °F - -0.4 °F 10% 30.16 in 10.0 mi North 17.3 mph 28.8 mph N/A   Clear
12:15 PM 55.4 °F - 1.4 °F 11% 30.16 in 7.0 mi North 21.9 mph 27.6 mph N/A   Clear
12:35 PM 57.2 °F - 5.0 °F 12% 30.15 in 10.0 mi NNE 11.5 mph - N/A Thunderstorm Clear
12:55 PM 55.4 °F - 5.0 °F 13% 30.15 in 10.0 mi NNE 12.7 mph 26.5 mph N/A   Clear
1:15 PM 55.4 °F - 1.4 °F 11% 30.14 in 10.0 mi North 15.0 mph 21.9 mph N/A   Clear
1:35 PM 57.2 °F - 3.2 °F 11% 30.14 in 10.0 mi NNE 16.1 mph 21.9 mph N/A   Clear
1:55 PM 57.2 °F - 1.4 °F 10% 30.13 in 10.0 mi NNE 12.7 mph - N/A   Clear
2:15 PM 57.2 °F - 1.4 °F 10% 30.13 in 10.0 mi NNE 17.3 mph 21.9 mph N/A   Clear
2:35 PM 57.2 °F - 3.2 °F 11% 30.13 in 10.0 mi NNE 18.4 mph 24.2 mph N/A   Clear
2:55 PM 57.2 °F - 3.2 °F 11% 30.13 in 10.0 mi NE 16.1 mph 19.6 mph N/A   Clear
3:15 PM 57.2 °F - 3.2 °F 11% 30.12 in 10.0 mi NE 13.8 mph 19.6 mph N/A   Clear
3:35 PM 55.4 °F - 5.0 °F 13% 30.12 in 10.0 mi ENE 16.1 mph 19.6 mph N/A   Clear
3:55 PM 55.4 °F - 6.8 °F 14% 30.12 in 10.0 mi ENE 13.8 mph - N/A   Clear
4:15 PM 55.4 °F - 6.8 °F 14% 30.12 in 10.0 mi ENE 13.8 mph 18.4 mph N/A   Clear
4:35 PM 55.4 °F - 6.8 °F 14% 30.13 in 10.0 mi NE 9.2 mph - N/A   Clear
4:55 PM 55.4 °F - 6.8 °F 14% 30.13 in 10.0 mi NE 10.4 mph - N/A   Clear
5:15 PM 53.6 °F - 8.6 °F 16% 30.14 in 10.0 mi NNE 6.9 mph - N/A   Clear
5:35 PM 51.8 °F - 12.2 °F 21% 30.14 in 10.0 mi NNE 8.1 mph - N/A   Clear
5:55 PM 50.0 °F - 8.6 °F 19% 30.15 in 10.0 mi NE 6.9 mph - N/A   Clear
6:15 PM 48.2 °F - 10.4 °F 22% 30.16 in 10.0 mi NE 5.8 mph - N/A   Clear
6:35 PM 44.6 °F 43.1 °F 17.6 °F 34% 30.16 in 10.0 mi NE 3.5 mph - N/A   Clear
6:55 PM 44.6 °F 40.7 °F 19.4 °F 37% 30.17 in 10.0 mi NNE 6.9 mph - N/A   Clear
7:15 PM 44.6 °F 39.7 °F 19.4 °F 37% 30.18 in 10.0 mi NNE 9.2 mph - N/A   Clear
7:35 PM 48.2 °F - 19.4 °F 32% 30.18 in 10.0 mi NE 8.1 mph - N/A   Clear
7:55 PM 46.4 °F 41.9 °F 19.4 °F 34% 30.19 in 10.0 mi NNE 9.2 mph - N/A   Clear
8:15 PM 48.2 °F - 14.0 °F 25% 30.20 in 10.0 mi NNE 11.5 mph - N/A   Clear
8:35 PM 48.2 °F - 15.8 °F 27% 30.21 in 10.0 mi NNE 12.7 mph - N/A   Clear
8:55 PM 48.2 °F - 14.0 °F 25% 30.22 in 10.0 mi NNE 16.1 mph - N/A   Clear
9:15 PM 48.2 °F - 12.2 °F 24% 30.22 in 10.0 mi NNE 16.1 mph 23.0 mph N/A   Clear
9:35 PM 46.4 °F 39.8 °F 12.2 °F 25% 30.23 in 10.0 mi NNE 16.1 mph - N/A   Clear
9:55 PM 46.4 °F 40.1 °F 12.2 °F 25% 30.24 in 10.0 mi NNE 15.0 mph - N/A   Clear
10:15 PM 46.4 °F 40.1 °F 14.0 °F 27% 30.24 in 10.0 mi NE 15.0 mph 24.2 mph N/A   Clear
10:35 PM 46.4 °F 40.4 °F 15.8 °F 29% 30.24 in 10.0 mi NNE 13.8 mph - N/A   Clear
10:55 PM 46.4 °F 39.5 °F 15.8 °F 29% 30.25 in 10.0 mi NNE 17.3 mph 21.9 mph N/A Thunderstorm Clear
11:15 PM 44.6 °F 38.4 °F 14.0 °F 29% 30.25 in 10.0 mi NNE 12.7 mph - N/A   Clear
11:35 PM 44.6 °F 38.8 °F 12.2 °F 27% 30.26 in 10.0 mi NNE 11.5 mph - N/A   Clear
11:55 PM 44.6 °F 38.8 °F 14.0 °F 29% 30.26 in 10.0 mi NNE 11.5 mph - N/A   Clear